Weather History for KSAZ - November, 2012

Change the Weather History Date:

Friday, November 9, 2012

  Actual Average Record
Temperature  
Mean Temperature 36 °F -  
Max Temperature 37 °F 38 °F 66 °F (1999)
Min Temperature 35 °F 23 °F 17 °F (2011)
Degree Days  
Heating Degree Days 29    
Moisture  
Dew Point 32 °F    
Average Humidity 83    
Maximum Humidity 93    
Minimum Humidity 75    
Precipitation  
Precipitation 0.00 in - - ()
Sea Level Pressure  
Sea Level Pressure 30.04 in    
Wind  
Wind Speed 8 mph (ENE)    
Max Wind Speed 14 mph    
Max Gust Speed 21 mph    
Visibility 10 miles    
Events      
Averages and records for this station are not official NWS values.
T = Trace of Precipitation, MM = Missing Value Source: NWS Daily Summary

Daily Weather History Graph

Daily Weather History Graph

Search for Another Location

Airport or City:

Trip Planner

Search our weather history database for the weather conditions in past years. The results will help you decide how hot, cold, wet, or windy it might be!

Date:

Astronomy

Nov. 09, 2012 Rise Set
Actual Time 7:12 AM CST 4:52 PM CST
Civil Twilight 6:40 AM CST 5:24 PM CST
Nautical Twilight 6:04 AM CST 6:00 PM CST
Astronomical Twilight 5:29 AM CST 6:36 PM CST
Moon 1:56 AM CST (11/9) 2:20 PM CST (11/9)
Length of Visible Light 10h 44m
Length of Day
9h 39m
Waning Crescent, 23% of the Moon is Illuminated
Nov 9
Waning Crescent
Nov 13
New
Nov 20
First Quarter
Nov 28
Full
Dec 6
Last Quarter

Hourly Weather History & Observations

Time (CST) Temp. Windchill Dew Point Humidity Pressure Visibility Wind Dir Wind Speed Gust Speed Precip Events Conditions
12:13 AM 37.4 °F 32.8 °F 33.8 °F 87% 30.06 in 10.0 mi NNE 5.8 mph - N/A   Overcast
12:34 AM 37.4 °F 32.1 °F 33.8 °F 87% 30.06 in 10.0 mi North 6.9 mph - N/A   Overcast
12:53 AM 37.4 °F 32.1 °F 32.0 °F 81% 30.06 in 10.0 mi NNE 6.9 mph - N/A   Overcast
1:13 AM 37.4 °F 33.8 °F 33.8 °F 87% 30.07 in 10.0 mi NNE 4.6 mph - N/A   Overcast
1:34 AM 37.4 °F 34.9 °F 33.8 °F 87% 30.07 in 10.0 mi NNE 3.5 mph - N/A   Overcast
1:53 AM 37.4 °F 32.8 °F 33.8 °F 87% 30.07 in 10.0 mi NNE 5.8 mph - N/A   Overcast
2:13 AM 37.4 °F 30.8 °F 33.8 °F 87% 30.07 in 10.0 mi NNE 9.2 mph - N/A   Overcast
2:34 AM 37.4 °F 32.1 °F 32.0 °F 81% 30.07 in 10.0 mi NNE 6.9 mph - N/A   Overcast
2:53 AM 35.6 °F 29.2 °F 32.0 °F 87% 30.08 in 10.0 mi NNE 8.1 mph - N/A   Overcast
3:13 AM 35.6 °F 29.2 °F 32.0 °F 87% 30.07 in 10.0 mi NNE 8.1 mph - N/A   Overcast
3:34 AM 35.6 °F 28.6 °F 32.0 °F 87% 30.08 in 10.0 mi NNE 9.2 mph - N/A   Overcast
3:53 AM 35.6 °F 28.6 °F 32.0 °F 87% 30.08 in 10.0 mi NNE 9.2 mph 16.1 mph N/A   Overcast
4:13 AM 35.6 °F 28.0 °F 32.0 °F 87% 30.08 in 10.0 mi NNE 10.4 mph 16.1 mph N/A   Overcast
4:33 AM 35.6 °F 27.5 °F 30.2 °F 81% 30.08 in 10.0 mi NNE 11.5 mph 16.1 mph N/A   Overcast
4:53 AM 35.6 °F 29.2 °F 30.2 °F 81% 30.09 in 10.0 mi NE 8.1 mph - N/A   Overcast
5:14 AM 35.6 °F 29.2 °F 30.2 °F 81% 30.08 in 10.0 mi NE 8.1 mph - N/A   Overcast
5:53 AM 35.6 °F 28.6 °F 30.2 °F 81% 30.08 in 10.0 mi NE 9.2 mph - N/A   Overcast
6:13 AM 35.6 °F 29.2 °F 30.2 °F 81% 30.08 in 10.0 mi NE 8.1 mph - N/A   Overcast
6:33 AM 35.6 °F 30.7 °F 30.2 °F 81% 30.08 in 10.0 mi NE 5.8 mph - N/A   Overcast
6:54 AM 35.6 °F 28.0 °F 30.2 °F 81% 30.08 in 10.0 mi ENE 10.4 mph - N/A   Overcast
7:13 AM 35.6 °F 29.9 °F 30.2 °F 81% 30.09 in 10.0 mi NE 6.9 mph - N/A   Overcast
7:33 AM 35.6 °F 28.6 °F 30.2 °F 81% 30.08 in 10.0 mi NE 9.2 mph - N/A   Overcast
7:54 AM 35.6 °F 29.2 °F 30.2 °F 81% 30.09 in 10.0 mi NE 8.1 mph - N/A   Overcast
8:13 AM 35.6 °F 29.9 °F 30.2 °F 81% 30.09 in 10.0 mi NE 6.9 mph - N/A   Overcast
8:33 AM 35.6 °F 27.1 °F 30.2 °F 81% 30.09 in 10.0 mi ENE 12.7 mph 19.6 mph N/A   Overcast
8:54 AM 35.6 °F 28.6 °F 30.2 °F 81% 30.08 in 10.0 mi ENE 9.2 mph 16.1 mph N/A   Overcast
9:13 AM 35.6 °F 31.7 °F 30.2 °F 81% 30.09 in 10.0 mi ENE 4.6 mph - N/A   Overcast
9:34 AM 35.6 °F 29.9 °F 30.2 °F 81% 30.09 in 10.0 mi ENE 6.9 mph - N/A   Overcast
9:53 AM 35.6 °F 29.2 °F 30.2 °F 81% 30.08 in 10.0 mi ENE 8.1 mph 18.4 mph N/A   Overcast
10:13 AM 35.6 °F 28.6 °F 30.2 °F 81% 30.08 in 10.0 mi ENE 9.2 mph 16.1 mph N/A   Overcast
10:34 AM 35.6 °F 31.7 °F 30.2 °F 81% 30.09 in 10.0 mi ENE 4.6 mph - N/A   Overcast
10:53 AM 35.6 °F 29.2 °F 30.2 °F 81% 30.08 in 10.0 mi ENE 8.1 mph - N/A   Overcast
11:13 AM 35.6 °F 28.6 °F 30.2 °F 81% 30.07 in 10.0 mi ENE 9.2 mph 16.1 mph N/A   Overcast
11:34 AM 37.4 °F 30.3 °F 30.2 °F 75% 30.06 in 10.0 mi East 10.4 mph 18.4 mph N/A   Overcast
11:53 AM 37.4 °F 31.4 °F 30.2 °F 75% 30.05 in 10.0 mi ENE 8.1 mph 16.1 mph N/A   Overcast
12:13 PM 37.4 °F 30.3 °F 30.2 °F 75% 30.04 in 10.0 mi ENE 10.4 mph - N/A   Overcast
12:34 PM 37.4 °F 30.8 °F 30.2 °F 75% 30.03 in 10.0 mi ENE 9.2 mph 16.1 mph N/A   Overcast
12:53 PM 37.4 °F 29.3 °F 30.2 °F 75% 30.02 in 10.0 mi ENE 12.7 mph 17.3 mph N/A   Overcast
1:13 PM 37.4 °F 30.8 °F 30.2 °F 75% 30.03 in 10.0 mi ENE 9.2 mph 16.1 mph N/A   Overcast
1:34 PM 37.4 °F 29.8 °F 32.0 °F 81% 30.02 in 10.0 mi ENE 11.5 mph 17.3 mph N/A   Overcast
1:53 PM 37.4 °F 30.3 °F 32.0 °F 81% 30.01 in 10.0 mi ENE 10.4 mph - N/A   Overcast
2:13 PM 37.4 °F 30.3 °F 32.0 °F 81% 30.00 in 10.0 mi ENE 10.4 mph 17.3 mph N/A   Overcast
2:34 PM 37.4 °F 30.3 °F 32.0 °F 81% 30.01 in 10.0 mi ENE 10.4 mph 18.4 mph N/A   Overcast
2:53 PM 37.4 °F 32.1 °F 32.0 °F 81% 30.02 in 10.0 mi East 6.9 mph 16.1 mph N/A   Overcast
3:13 PM 37.4 °F 30.8 °F 32.0 °F 81% 30.01 in 10.0 mi ENE 9.2 mph 16.1 mph N/A   Overcast
3:34 PM 37.4 °F 32.1 °F 32.0 °F 81% 30.00 in 10.0 mi ENE 6.9 mph - N/A   Overcast
3:53 PM 37.4 °F 31.4 °F 32.0 °F 81% 30.01 in 10.0 mi ENE 8.1 mph 18.4 mph N/A   Overcast
4:13 PM 37.4 °F 30.8 °F 32.0 °F 81% 30.00 in 10.0 mi ENE 9.2 mph 16.1 mph N/A   Overcast
4:33 PM 37.4 °F 32.1 °F 32.0 °F 81% 30.00 in 10.0 mi ENE 6.9 mph - N/A   Overcast
4:53 PM 37.4 °F 30.8 °F 32.0 °F 81% 29.99 in 10.0 mi ENE 9.2 mph - N/A   Overcast
5:14 PM 37.4 °F 32.8 °F 33.8 °F 87% 29.99 in 10.0 mi ENE 5.8 mph 18.4 mph N/A   Overcast
5:33 PM 37.4 °F 30.3 °F 33.8 °F 87% 29.99 in 10.0 mi ENE 10.4 mph 16.1 mph N/A   Overcast
5:53 PM 37.4 °F 29.8 °F 33.8 °F 87% 30.00 in 10.0 mi ENE 11.5 mph 17.3 mph N/A   Overcast
6:14 PM 37.4 °F 32.1 °F 33.8 °F 87% 29.99 in 10.0 mi East 6.9 mph 18.4 mph N/A   Overcast
6:33 PM 37.4 °F 30.3 °F 33.8 °F 87% 30.00 in 10.0 mi ENE 10.4 mph 17.3 mph N/A   Overcast
6:53 PM 37.4 °F 29.3 °F 33.8 °F 87% 29.99 in 10.0 mi East 12.7 mph 20.7 mph N/A   Overcast
7:14 PM 37.4 °F 30.3 °F 33.8 °F 87% 30.00 in 10.0 mi East 10.4 mph 17.3 mph N/A   Overcast
7:33 PM 37.4 °F 30.3 °F 33.8 °F 87% 30.00 in 10.0 mi East 10.4 mph - N/A   Overcast
7:53 PM 37.4 °F 28.9 °F 33.8 °F 87% 29.99 in 10.0 mi East 13.8 mph 18.4 mph N/A   Overcast
8:14 PM 37.4 °F 29.3 °F 33.8 °F 87% 29.99 in 10.0 mi East 12.7 mph 20.7 mph N/A   Overcast
8:33 PM 35.6 °F 28.0 °F 33.8 °F 93% 30.00 in 10.0 mi East 10.4 mph - N/A   Overcast
9:14 PM 37.4 °F 30.8 °F 33.8 °F 87% 29.98 in 10.0 mi East 9.2 mph 17.3 mph N/A   Overcast
9:33 PM 37.4 °F 30.8 °F 33.8 °F 87% 29.99 in 10.0 mi East 9.2 mph 17.3 mph N/A   Overcast
9:53 PM 37.4 °F 29.8 °F 33.8 °F 87% 29.98 in 10.0 mi East 11.5 mph 17.3 mph N/A   Overcast
10:14 PM 37.4 °F 29.8 °F 33.8 °F 87% 29.98 in 10.0 mi East 11.5 mph 18.4 mph N/A   Overcast
10:33 PM 37.4 °F 30.3 °F 33.8 °F 87% 29.97 in 10.0 mi East 10.4 mph 20.7 mph N/A   Overcast
10:53 PM 37.4 °F 30.3 °F 33.8 °F 87% 29.95 in 10.0 mi East 10.4 mph 18.4 mph N/A   Overcast
11:14 PM 37.4 °F 29.8 °F 33.8 °F 87% 29.93 in 10.0 mi East 11.5 mph 20.7 mph N/A   Overcast
11:33 PM 37.4 °F 29.3 °F 33.8 °F 87% 29.92 in 10.0 mi East 12.7 mph 18.4 mph N/A   Overcast
11:53 PM 37.4 °F 32.1 °F 33.8 °F 87% 29.92 in 10.0 mi East 6.9 mph 16.1 mph N/A   Overcast